Overview Statistics Trail Chart Weather Telemetry Raw packets
 

This is the latest recevied weather packets stored in our database for station/object N3TJJ-2. If no packets are shown the sender has not sent any weather packets the latest 10 day(s).

<< 23 24 25 26 27 28 29 >>
Time Temp. Humidity Pressure Rain* Wind** Luminosity Snow
1788462050 30° C 69% 1015.1 hPa 0 mm - - -
1788461690 30° C 70% 1015.2 hPa 0 mm - - -
1788461340 29.44° C 71% 1015.3 hPa 0 mm - - -
1788460983 29.44° C 73% 1015.3 hPa 0 mm - - -
1788460612 29.44° C 72% 1015.3 hPa 0 mm - - -
1788460252 28.89° C 73% 1015.4 hPa 0 mm - - -
1788459889 28.89° C 74% 1015.5 hPa 0 mm - - -
1788459533 28.89° C 74% 1015.6 hPa 0 mm - - -
1788459179 28.89° C 74% 1015.6 hPa 0 mm - - -
1788459112 28.33° C 75% 1015.8 hPa 0 mm - - -
1788458092 28.33° C 74% 1015.8 hPa 0 mm - - -
1788457752 27.78° C 75% 1015.8 hPa 0 mm - - -
1788457369 27.78° C 75% 1015.8 hPa 0 mm - - -
1788457010 27.78° C 75% 1015.9 hPa 0 mm - - -
1788456968 27.22° C 75% 1016 hPa 0 mm - - -
1788456298 27.22° C 75% 1016.1 hPa 0 mm - - -
1788455934 27.78° C 75% 1016.1 hPa 0 mm - - -
1788455593 27.22° C 75% 1016.2 hPa 0 mm - - -
1788455293 27.22° C 75% 1016.4 hPa 0 mm - - -
1788454861 27.22° C 74% 1016.5 hPa 0 mm - - -
1788454492 26.67° C 74% 1016.4 hPa 0 mm - - -
1788454131 26.67° C 73% 1016.7 hPa 0 mm - - -
1788453795 26.11° C 73% 1016.8 hPa 0 mm - - -
1788453426 26.11° C 72% 1017 hPa 0 mm - - -
1788453094 26.11° C 73% 1017.2 hPa 0 mm - - -

* Rain latest hour (hover to see other rain measurements)
** Current wind speed in m/s (hover to see current wind gust speed)